PORTS® Data Listing: 8720233 Blount Island Command, FL

CO-OPS RAW PORTS DATA

************************      PRELIMINARY DATA      ************************** 

     THIS RAW DATA HAS NOT BEEN SUBJECT TO THE NATIONAL OCEAN SERVICE'S        
     QUALITY CONTROL OR QUALITY ASSURANCE PROCEDURES AND DOES NOT MEET         
     THE CRITERIA AND STANDARDS OF OFFICIAL NATIONAL OCEAN SERVICE             
     DATA.  IT IS RELEASED FOR LIMITED PUBLIC USE AS PRELIMINARY DATA TO       
     BE USED ONLY WITH APPROPRIATE CAUTION.                                    

************************      PRELIMINARY DATA      ************************** 


       CD   -   Calendar date
       T    -   Time
       TZ   -   Timezone
       PW   -   Predicted water level (feet above MLLW)
       OW   -   Observed water level (feet above MLLW)
       WS   -   Wind speed (knots)
       WD   -   Wind direction (degrees true)
       WG   -   Wind gust (knots)
       AT   -   Air temperature (degrees farenheit)
       WT   -   Water temperature (degrees farenheit)
       AP   -   Air pressure (millibars)
       SA   -   Salinty (PSU - Practical Salinity Units)
       SG   -   Specific gravity
       RH   -   Relative humidity
       AG   -   Air gap (feet)
       VI   -   Visibility (nautical miles)

       ** NOTE **
       A variable that has its data fields filled with "9"s, indicates that
       data was not collected for that sample period.
       **********


STATION NAME: Blount Island Command (8720233)
****************************************************************************************************
    CD       T    TZ    PW     OW    WS   WD   WG    AT    WT    AP    SA    SG     RH    AG   VI
****************************************************************************************************
2019/12/05 19:42 EST  -99.99 -99.99    3   53    4  55.2 -99.9 1022.9 -9.9 -9.999  90.0 -99.99  5.40
2019/12/05 19:48 EST  -99.99 -99.99    3   62    4  55.2 -99.9 1022.9 -9.9 -9.999  89.7 -99.99  5.40
2019/12/05 19:54 EST  -99.99 -99.99    3   57    4  55.0 -99.9 1022.9 -9.9 -9.999  89.2 -99.99  5.40
2019/12/05 20:00 EST  -99.99 -99.99    3   65    4  54.9 -99.9 1022.9 -9.9 -9.999  89.2 -99.99  5.40
2019/12/05 20:06 EST  -99.99 -99.99    3   61    4  54.9 -99.9 1022.9 -9.9 -9.999  89.7 -99.99  5.40
2019/12/05 20:12 EST  -99.99 -99.99    4   56    5  54.7 -99.9 1022.9 -9.9 -9.999  90.1 -99.99  5.40
2019/12/05 20:18 EST  -99.99 -99.99    5   48    6  54.5 -99.9 1022.9 -9.9 -9.999  91.2 -99.99  5.40
2019/12/05 20:24 EST  -99.99 -99.99    4   55    5  54.9 -99.9 1022.8 -9.9 -9.999  92.4 -99.99  5.40
2019/12/05 20:30 EST  -99.99 -99.99    5   62    6  54.7 -99.9 1022.8 -9.9 -9.999  92.1 -99.99  5.40
2019/12/05 20:36 EST  -99.99 -99.99    4   72    5  54.9 -99.9 1022.9 -9.9 -9.999  91.3 -99.99  5.40
2019/12/05 20:42 EST  -99.99 -99.99    3   73    5  55.0 -99.9 1023.0 -9.9 -9.999  90.7 -99.99  5.40
2019/12/05 20:48 EST  -99.99 -99.99    4   76    4  55.2 -99.9 1023.0 -9.9 -9.999  89.6 -99.99  5.40
2019/12/05 20:54 EST  -99.99 -99.99    4   75    5  55.4 -99.9 1023.1 -9.9 -9.999  88.3 -99.99  5.40
2019/12/05 21:00 EST  -99.99 -99.99    4   72    5  55.6 -99.9 1023.1 -9.9 -9.999  87.5 -99.99  5.40
2019/12/05 21:06 EST  -99.99 -99.99    4   69    4  55.2 -99.9 1023.2 -9.9 -9.999  87.4 -99.99  5.40
2019/12/05 21:12 EST  -99.99 -99.99    4   56    4  55.2 -99.9 1023.2 -9.9 -9.999  88.9 -99.99  5.40
2019/12/05 21:18 EST  -99.99 -99.99    3   57    4  55.4 -99.9 1023.2 -9.9 -9.999  89.9 -99.99  5.40
2019/12/05 21:24 EST  -99.99 -99.99    3   50    4  55.2 -99.9 1023.3 -9.9 -9.999  90.3 -99.99  5.40
2019/12/05 21:30 EST  -99.99 -99.99    3   44    4  55.0 -99.9 1023.4 -9.9 -9.999  91.0 -99.99  5.40
2019/12/05 21:36 EST  -99.99 -99.99    2   40    3  54.7 -99.9 1023.4 -9.9 -9.999  92.5 -99.99  5.40
2019/12/05 21:42 EST  -99.99 -99.99    3   30    3  54.5 -99.9 1023.5 -9.9 -9.999  92.9 -99.99  5.40
2019/12/05 21:48 EST  -99.99 -99.99    3   17    3  54.5 -99.9 1023.5 -9.9 -9.999  93.6 -99.99  5.40
2019/12/05 21:54 EST  -99.99 -99.99    3   20    3  54.3 -99.9 1023.6 -9.9 -9.999  94.1 -99.99  5.40
2019/12/05 22:00 EST  -99.99 -99.99    3   30    3  54.3 -99.9 1023.5 -9.9 -9.999  94.1 -99.99  5.40
2019/12/05 22:06 EST  -99.99 -99.99    2   20    3  54.3 -99.9 1023.5 -9.9 -9.999  95.0 -99.99  5.40
2019/12/05 22:12 EST  -99.99 -99.99    2   36    3  54.0 -99.9 1023.6 -9.9 -9.999  96.3 -99.99  5.40
2019/12/05 22:18 EST  -99.99 -99.99    2   28    2  54.3 -99.9 1023.6 -9.9 -9.999  98.0 -99.99  5.40
2019/12/05 22:24 EST  -99.99 -99.99    1   36    2  54.0 -99.9 1023.7 -9.9 -9.999  99.5 -99.99  5.40
2019/12/05 22:30 EST  -99.99 -99.99    0   36    1  53.8 -99.9 1023.7 -9.9 -9.999 100.0 -99.99  5.40
2019/12/05 22:36 EST  -99.99 -99.99    1  212    2  53.8 -99.9 1023.7 -9.9 -9.999 100.0 -99.99  5.40
2019/12/05 22:42 EST  -99.99 -99.99    1  230    1  54.0 -99.9 1023.6 -9.9 -9.999 100.0 -99.99  5.40
2019/12/05 22:48 EST  -99.99 -99.99    1  227    2  53.8 -99.9 1023.7 -9.9 -9.999 100.0 -99.99  5.40
2019/12/05 22:54 EST  -99.99 -99.99    2  204    2  53.8 -99.9 1023.7 -9.9 -9.999 100.0 -99.99  5.40
2019/12/05 23:00 EST  -99.99 -99.99    2  197    3  53.1 -99.9 1023.6 -9.9 -9.999 100.0 -99.99  5.40
2019/12/05 23:06 EST  -99.99 -99.99    2  224    3  52.7 -99.9 1023.6 -9.9 -9.999 100.0 -99.99  5.40
2019/12/05 23:12 EST  -99.99 -99.99    2  222    2  52.7 -99.9 1023.6 -9.9 -9.999 100.0 -99.99  5.40
2019/12/05 23:18 EST  -99.99 -99.99    2  224    2  52.5 -99.9 1023.6 -9.9 -9.999 100.0 -99.99  5.40
2019/12/05 23:24 EST  -99.99 -99.99    2  220    2  52.7 -99.9 1023.6 -9.9 -9.999 100.0 -99.99  5.40
2019/12/05 23:30 EST  -99.99 -99.99    0  220    1  52.3 -99.9 1023.6 -9.9 -9.999 100.0 -99.99  5.40
2019/12/05 23:36 EST  -99.99 -99.99    1  220    1  52.3 -99.9 1023.7 -9.9 -9.999 100.0 -99.99  5.40
2019/12/05 23:42 EST  -99.99 -99.99    1  230    1  52.7 -99.9 1023.7 -9.9 -9.999 100.0 -99.99  5.40
2019/12/05 23:48 EST  -99.99 -99.99    0  230    1  52.7 -99.9 1023.8 -9.9 -9.999 100.0 -99.99  5.40
2019/12/05 23:54 EST  -99.99 -99.99    1  276    2  52.2 -99.9 1023.8 -9.9 -9.999 100.0 -99.99  5.40
2019/12/06 00:00 EST  -99.99 -99.99    2  254    2  52.3 -99.9 1023.8 -9.9 -9.999 100.0 -99.99  5.40
2019/12/06 00:06 EST  -99.99 -99.99    2  282    2  52.3 -99.9 1023.8 -9.9 -9.999 100.0 -99.99  5.40
2019/12/06 00:12 EST  -99.99 -99.99    1  258    2  52.2 -99.9 1023.7 -9.9 -9.999 100.0 -99.99  5.40
2019/12/06 00:18 EST  -99.99 -99.99    0  257    1  52.3 -99.9 1023.7 -9.9 -9.999 100.0 -99.99  5.40
2019/12/06 00:24 EST  -99.99 -99.99    0  258    0  53.1 -99.9 1023.7 -9.9 -9.999 100.0 -99.99  5.40
2019/12/06 00:30 EST  -99.99 -99.99    2  313    2  52.5 -99.9 1023.7 -9.9 -9.999 100.0 -99.99  5.40
2019/12/06 00:36 EST  -99.99 -99.99    1  317    2  52.0 -99.9 1023.7 -9.9 -9.999 100.0 -99.99  5.40
2019/12/06 00:42 EST  -99.99 -99.99    2  310    2  51.8 -99.9 1023.7 -9.9 -9.999 100.0 -99.99 -9.99
2019/12/06 00:48 EST  -99.99 -99.99    1  301    2  51.4 -99.9 1023.8 -9.9 -9.999 100.0 -99.99 -9.99
2019/12/06 00:54 EST  -99.99 -99.99    1  296    2  51.4 -99.9 1023.8 -9.9 -9.999 100.0 -99.99 -9.99
2019/12/06 01:00 EST  -99.99 -99.99    2  297    2  51.4 -99.9 1023.8 -9.9 -9.999 100.0 -99.99 -9.99
2019/12/06 01:06 EST  -99.99 -99.99    2  293    2  51.4 -99.9 1023.8 -9.9 -9.999 100.0 -99.99 -9.99
2019/12/06 01:12 EST  -99.99 -99.99    1  293    2  51.3 -99.9 1023.7 -9.9 -9.999 100.0 -99.99 -9.99
2019/12/06 01:18 EST  -99.99 -99.99    1  293    1  51.1 -99.9 1023.8 -9.9 -9.999 100.0 -99.99 -9.99
2019/12/06 01:24 EST  -99.99 -99.99    2  290    2  51.1 -99.9 1023.7 -9.9 -9.999 100.0 -99.99 -9.99
2019/12/06 01:30 EST  -99.99 -99.99    1  289    2  51.1 -99.9 1023.8 -9.9 -9.999 100.0 -99.99 -9.99
2019/12/06 01:36 EST  -99.99 -99.99    1  289    1  50.9 -99.9 1023.8 -9.9 -9.999 100.0 -99.99 -9.99
2019/12/06 01:42 EST  -99.99 -99.99    1  316    2  50.7 -99.9 1023.8 -9.9 -9.999 100.0 -99.99 -9.99
2019/12/06 01:48 EST  -99.99 -99.99    1  332    2  50.7 -99.9 1023.8 -9.9 -9.999 100.0 -99.99  5.40
2019/12/06 01:54 EST  -99.99 -99.99    0  327    1  50.7 -99.9 1023.9 -9.9 -9.999 100.0 -99.99  5.40
2019/12/06 02:00 EST  -99.99 -99.99    1  309    1  50.7 -99.9 1023.8 -9.9 -9.999 100.0 -99.99  5.40
2019/12/06 02:06 EST  -99.99 -99.99    0  309    1  50.9 -99.9 1023.9 -9.9 -9.999 100.0 -99.99  5.40
2019/12/06 02:12 EST  -99.99 -99.99    1  309    1  50.5 -99.9 1023.7 -9.9 -9.999 100.0 -99.99  5.40
2019/12/06 02:18 EST  -99.99 -99.99    1  309    1  50.7 -99.9 1023.7 -9.9 -9.999 100.0 -99.99  5.40
2019/12/06 02:24 EST  -99.99 -99.99    1  309    1  50.9 -99.9 1023.7 -9.9 -9.999 100.0 -99.99  5.40
2019/12/06 02:30 EST  -99.99 -99.99    1  315    2  50.5 -99.9 1023.7 -9.9 -9.999 100.0 -99.99  5.40
2019/12/06 02:36 EST  -99.99 -99.99    2  288    2  50.5 -99.9 1023.6 -9.9 -9.999 100.0 -99.99  5.40
2019/12/06 02:42 EST  -99.99 -99.99    2  296    2  50.7 -99.9 1023.6 -9.9 -9.999 100.0 -99.99  5.40
2019/12/06 02:48 EST  -99.99 -99.99    1  304    2  50.7 -99.9 1023.6 -9.9 -9.999 100.0 -99.99  5.40
2019/12/06 02:54 EST  -99.99 -99.99    2  308    2  50.5 -99.9 1023.5 -9.9 -9.999 100.0 -99.99  5.40
2019/12/06 03:00 EST  -99.99 -99.99    2  308    2  50.4 -99.9 1023.5 -9.9 -9.999 100.0 -99.99  5.40
2019/12/06 03:06 EST  -99.99 -99.99    1  326    2  50.2 -99.9 1023.4 -9.9 -9.999 100.0 -99.99  5.40
2019/12/06 03:12 EST  -99.99 -99.99    2  315    2  50.4 -99.9 1023.3 -9.9 -9.999 100.0 -99.99  5.40
2019/12/06 03:18 EST  -99.99 -99.99    2  307    2  50.2 -99.9 1023.3 -9.9 -9.999 100.0 -99.99  5.40
2019/12/06 03:24 EST  -99.99 -99.99    2  315    3  50.2 -99.9 1023.3 -9.9 -9.999 100.0 -99.99  5.40
2019/12/06 03:30 EST  -99.99 -99.99    2  302    3  50.2 -99.9 1023.3 -9.9 -9.999 100.0 -99.99  5.40
2019/12/06 03:36 EST  -99.99 -99.99    1  322    2  50.0 -99.9 1023.3 -9.9 -9.999 100.0 -99.99  5.40
2019/12/06 03:42 EST  -99.99 -99.99    2  301    2  50.0 -99.9 1023.3 -9.9 -9.999 100.0 -99.99  5.40
2019/12/06 03:48 EST  -99.99 -99.99    2  293    3  50.0 -99.9 1023.3 -9.9 -9.999 100.0 -99.99  5.40
2019/12/06 03:54 EST  -99.99 -99.99    1  283    2  50.0 -99.9 1023.3 -9.9 -9.999 100.0 -99.99  5.40
2019/12/06 04:00 EST  -99.99 -99.99    1  294    2  50.0 -99.9 1023.3 -9.9 -9.999 100.0 -99.99  5.40
2019/12/06 04:06 EST  -99.99 -99.99    2  302    3  49.8 -99.9 1023.2 -9.9 -9.999 100.0 -99.99  5.40
2019/12/06 04:12 EST  -99.99 -99.99    1  312    3  49.8 -99.9 1023.2 -9.9 -9.999 100.0 -99.99  5.40
2019/12/06 04:18 EST  -99.99 -99.99    2  312    2  49.8 -99.9 1023.1 -9.9 -9.999 100.0 -99.99  5.40
2019/12/06 04:24 EST  -99.99 -99.99    1  306    2  49.6 -99.9 1023.1 -9.9 -9.999 100.0 -99.99  5.40
2019/12/06 04:30 EST  -99.99 -99.99    2  296    2  49.5 -99.9 1023.1 -9.9 -9.999 100.0 -99.99  5.40
2019/12/06 04:36 EST  -99.99 -99.99    2  296    3  49.6 -99.9 1023.1 -9.9 -9.999 100.0 -99.99  5.40
2019/12/06 04:42 EST  -99.99 -99.99    2  314    3  49.5 -99.9 1023.1 -9.9 -9.999 100.0 -99.99  5.40
2019/12/06 04:48 EST  -99.99 -99.99    2  331    2  49.5 -99.9 1023.1 -9.9 -9.999 100.0 -99.99  5.40
2019/12/06 04:54 EST  -99.99 -99.99    2  349    2  49.6 -99.9 1023.1 -9.9 -9.999 100.0 -99.99  5.40
2019/12/06 05:00 EST  -99.99 -99.99    2  341    3  49.6 -99.9 1023.1 -9.9 -9.999 100.0 -99.99  5.40
2019/12/06 05:06 EST  -99.99 -99.99    1  340    2  49.6 -99.9 1023.1 -9.9 -9.999 100.0 -99.99  5.40
2019/12/06 05:12 EST  -99.99 -99.99    1  316    1  49.5 -99.9 1023.2 -9.9 -9.999 100.0 -99.99  5.40
2019/12/06 05:18 EST  -99.99 -99.99    1  289    2  49.5 -99.9 1023.2 -9.9 -9.999 100.0 -99.99  5.40
2019/12/06 05:24 EST  -99.99 -99.99    1  303    1  49.3 -99.9 1023.2 -9.9 -9.999 100.0 -99.99  5.40
2019/12/06 05:30 EST  -99.99 -99.99    0  283    1  49.1 -99.9 1023.3 -9.9 -9.999 100.0 -99.99  5.40
2019/12/06 05:36 EST  -99.99 -99.99    1  303    2  49.3 -99.9 1023.3 -9.9 -9.999 100.0 -99.99  5.40
2019/12/06 05:42 EST  -99.99 -99.99    2  316    2  49.1 -99.9 1023.3 -9.9 -9.999 100.0 -99.99  5.40
2019/12/06 05:48 EST  -99.99 -99.99    2  315    3  48.9 -99.9 1023.4 -9.9 -9.999 100.0 -99.99  5.40
2019/12/06 05:54 EST  -99.99 -99.99    1  285    2  48.9 -99.9 1023.5 -9.9 -9.999 100.0 -99.99  5.40
2019/12/06 06:00 EST  -99.99 -99.99    1  305    1  48.9 -99.9 1023.5 -9.9 -9.999 100.0 -99.99  5.40
2019/12/06 06:06 EST  -99.99 -99.99    0  288    2  48.9 -99.9 1023.5 -9.9 -9.999 100.0 -99.99  5.40
2019/12/06 06:12 EST  -99.99 -99.99    1  282    1  48.9 -99.9 1023.5 -9.9 -9.999 100.0 -99.99  5.40
2019/12/06 06:18 EST  -99.99 -99.99    2  271    3  48.9 -99.9 1023.6 -9.9 -9.999 100.0 -99.99  5.40
2019/12/06 06:24 EST  -99.99 -99.99    2  275    3  48.6 -99.9 1023.6 -9.9 -9.999 100.0 -99.99  5.40
2019/12/06 06:30 EST  -99.99 -99.99    2  274    3  48.6 -99.9 1023.7 -9.9 -9.999 100.0 -99.99  5.40
2019/12/06 06:36 EST  -99.99 -99.99    2  282    3  48.4 -99.9 1023.8 -9.9 -9.999 100.0 -99.99  5.40
2019/12/06 06:42 EST  -99.99 -99.99    2  278    3  48.4 -99.9 1023.8 -9.9 -9.999 100.0 -99.99  5.40
2019/12/06 06:48 EST  -99.99 -99.99    3  273    3  48.4 -99.9 1023.7 -9.9 -9.999 100.0 -99.99  5.40
2019/12/06 06:54 EST  -99.99 -99.99    3  279    4  48.2 -99.9 1023.7 -9.9 -9.999 100.0 -99.99  5.40
2019/12/06 07:00 EST  -99.99 -99.99    2  286    3  48.2 -99.9 1023.8 -9.9 -9.999 100.0 -99.99  5.40
2019/12/06 07:06 EST  -99.99 -99.99    2  292    2  48.2 -99.9 1023.8 -9.9 -9.999 100.0 -99.99  5.40
2019/12/06 07:12 EST  -99.99 -99.99    2  270    2  48.2 -99.9 1023.8 -9.9 -9.999 100.0 -99.99  5.40
2019/12/06 07:18 EST  -99.99 -99.99    2  272    2  48.2 -99.9 1023.8 -9.9 -9.999 100.0 -99.99  5.40
2019/12/06 07:24 EST  -99.99 -99.99    2  270    2  48.2 -99.9 1023.8 -9.9 -9.999 100.0 -99.99  5.40
2019/12/06 07:30 EST  -99.99 -99.99    2  271    2  48.6 -99.9 1023.7 -9.9 -9.999 100.0 -99.99  5.40
2019/12/06 07:36 EST  -99.99 -99.99    3  262    3  48.9 -99.9 1023.8 -9.9 -9.999 100.0 -99.99  5.40
2019/12/06 07:42 EST  -99.99 -99.99    2  271    3  49.1 -99.9 1023.9 -9.9 -9.999 100.0 -99.99  5.40
2019/12/06 07:48 EST  -99.99 -99.99    3  265    4  49.6 -99.9 1023.9 -9.9 -9.999 100.0 -99.99  5.40
2019/12/06 07:54 EST  -99.99 -99.99    3  273    4  49.8 -99.9 1024.0 -9.9 -9.999 100.0 -99.99  5.40
2019/12/06 08:00 EST  -99.99 -99.99    3  258    4  50.2 -99.9 1024.1 -9.9 -9.999 100.0 -99.99  5.40
2019/12/06 08:06 EST  -99.99 -99.99    3  280    4  51.1 -99.9 1024.2 -9.9 -9.999 100.0 -99.99  5.40
2019/12/06 08:12 EST  -99.99 -99.99    2  283    3  51.1 -99.9 1024.3 -9.9 -9.999 100.0 -99.99  5.40
2019/12/06 08:18 EST  -99.99 -99.99    3  260    4  51.8 -99.9 1024.3 -9.9 -9.999 100.0 -99.99  5.40
2019/12/06 08:24 EST  -99.99 -99.99    3  270    5  52.3 -99.9 1024.4 -9.9 -9.999 100.0 -99.99  5.40
2019/12/06 08:30 EST  -99.99 -99.99    2  272    3  52.5 -99.9 1024.4 -9.9 -9.999 100.0 -99.99  5.40
2019/12/06 08:36 EST  -99.99 -99.99    3  271    3  53.1 -99.9 1024.5 -9.9 -9.999 100.0 -99.99  5.40
2019/12/06 08:42 EST  -99.99 -99.99    1  236    3  53.2 -99.9 1024.4 -9.9 -9.999 100.0 -99.99  5.40
2019/12/06 08:48 EST  -99.99 -99.99    1  270    3  54.7 -99.9 1024.3 -9.9 -9.999 100.0 -99.99  5.40
2019/12/06 08:54 EST  -99.99 -99.99    1  313    2  54.7 -99.9 1024.3 -9.9 -9.999 100.0 -99.99  5.40
2019/12/06 09:00 EST  -99.99 -99.99    1  326    2  55.0 -99.9 1024.4 -9.9 -9.999 100.0 -99.99  5.40
2019/12/06 09:06 EST  -99.99 -99.99    1  314    2  55.8 -99.9 1024.4 -9.9 -9.999  98.0 -99.99  5.40
2019/12/06 09:12 EST  -99.99 -99.99    0    3    2  55.8 -99.9 1024.4 -9.9 -9.999  94.1 -99.99  5.40
2019/12/06 09:18 EST  -99.99 -99.99    1  336    1  57.4 -99.9 1024.3 -9.9 -9.999  91.3 -99.99  5.40
2019/12/06 09:24 EST  -99.99 -99.99    1  313    2  57.0 -99.9 1024.3 -9.9 -9.999  84.4 -99.99  5.40
2019/12/06 09:30 EST  -99.99 -99.99    1  312    2  56.8 -99.9 1024.4 -9.9 -9.999  84.0 -99.99  5.40
2019/12/06 09:36 EST  -99.99 -99.99    2  306    3  56.7 -99.9 1024.4 -9.9 -9.999  82.2 -99.99  5.40
2019/12/06 09:42 EST  -99.99 -99.99    2  286    3  57.7 -99.9 1024.5 -9.9 -9.999  79.8 -99.99  5.40
2019/12/06 09:48 EST  -99.99 -99.99    3  256    4  58.6 -99.9 1024.7 -9.9 -9.999  77.4 -99.99  5.40
2019/12/06 09:54 EST  -99.99 -99.99    5  233    5  59.5 -99.9 1024.8 -9.9 -9.999  74.1 -99.99  5.40
2019/12/06 10:00 EST  -99.99 -99.99    4  228    6  58.3 -99.9 1024.8 -9.9 -9.999  82.4 -99.99  5.40
2019/12/06 10:06 EST  -99.99 -99.99    4  219    4  57.9 -99.9 1024.7 -9.9 -9.999  87.9 -99.99  5.40
2019/12/06 10:12 EST  -99.99 -99.99    2  206    5  58.3 -99.9 1024.6 -9.9 -9.999  87.3 -99.99  5.40
2019/12/06 10:18 EST  -99.99 -99.99    1  204    2  58.8 -99.9 1024.4 -9.9 -9.999  86.0 -99.99  5.40
2019/12/06 10:24 EST  -99.99 -99.99    2  211    3  60.3 -99.9 1024.4 -9.9 -9.999  82.2 -99.99  5.40
2019/12/06 10:30 EST  -99.99 -99.99    2  218    3  60.8 -99.9 1024.3 -9.9 -9.999  79.6 -99.99  5.40
2019/12/06 10:36 EST  -99.99 -99.99    1  210    2  61.0 -99.9 1024.2 -9.9 -9.999  79.2 -99.99  5.40
2019/12/06 10:42 EST  -99.99 -99.99    0  195    2  61.7 -99.9 1024.1 -9.9 -9.999  76.8 -99.99  5.40
2019/12/06 10:48 EST  -99.99 -99.99    1  209    2  63.7 -99.9 1024.0 -9.9 -9.999  70.6 -99.99  5.40
2019/12/06 10:54 EST  -99.99 -99.99    3  226    4  62.4 -99.9 1024.1 -9.9 -9.999  71.9 -99.99  5.40
2019/12/06 11:00 EST  -99.99 -99.99    5  236    5  62.2 -99.9 1024.0 -9.9 -9.999  73.6 -99.99  5.40
2019/12/06 11:06 EST  -99.99 -99.99    5  237    6  61.5 -99.9 1024.0 -9.9 -9.999  77.3 -99.99  5.40
2019/12/06 11:12 EST  -99.99 -99.99    4  231    5  61.7 -99.9 1024.1 -9.9 -9.999  77.8 -99.99  5.40
2019/12/06 11:18 EST  -99.99 -99.99    3  234    4  62.2 -99.9 1024.1 -9.9 -9.999  77.4 -99.99  5.40
2019/12/06 11:24 EST  -99.99 -99.99    4  238    4  63.5 -99.9 1024.0 -9.9 -9.999  74.8 -99.99  5.40
2019/12/06 11:30 EST  -99.99 -99.99    4  255    5  63.5 -99.9 1024.1 -9.9 -9.999  72.1 -99.99  5.40
2019/12/06 11:36 EST  -99.99 -99.99    4  255    7  65.3 -99.9 1024.1 -9.9 -9.999  69.6 -99.99  5.40
2019/12/06 11:42 EST  -99.99 -99.99    4  232    6  66.4 -99.9 1023.9 -9.9 -9.999  65.2 -99.99  5.40
2019/12/06 11:48 EST  -99.99 -99.99    5  258    6  65.8 -99.9 1023.8 -9.9 -9.999  64.6 -99.99  5.40
2019/12/06 11:54 EST  -99.99 -99.99    4  249    6  67.8 -99.9 1023.6 -9.9 -9.999  54.9 -99.99  5.40
2019/12/06 12:00 EST  -99.99 -99.99    5  236    6  68.4 -99.9 1023.5 -9.9 -9.999  53.7 -99.99  5.40
2019/12/06 12:06 EST  -99.99 -99.99    5  238    6  67.3 -99.9 1023.4 -9.9 -9.999  56.9 -99.99  5.40
2019/12/06 12:12 EST  -99.99 -99.99    4  232    5  67.8 -99.9 1023.3 -9.9 -9.999  53.6 -99.99  5.40
2019/12/06 12:18 EST  -99.99 -99.99    4  235    5  67.3 -99.9 1023.1 -9.9 -9.999  53.8 -99.99  5.40
2019/12/06 12:24 EST  -99.99 -99.99    3  237    4  68.5 -99.9 1022.8 -9.9 -9.999  54.0 -99.99  5.40
2019/12/06 12:30 EST  -99.99 -99.99    4  236    5  68.9 -99.9 1022.6 -9.9 -9.999  52.5 -99.99  5.40
2019/12/06 12:36 EST  -99.99 -99.99    3  246    6  68.9 -99.9 1022.6 -9.9 -9.999  51.4 -99.99  5.40
2019/12/06 12:42 EST  -99.99 -99.99    4  238    5  69.6 -99.9 1022.6 -9.9 -9.999  51.9 -99.99  5.40
2019/12/06 12:48 EST  -99.99 -99.99    4  243    6  69.1 -99.9 1022.5 -9.9 -9.999  51.5 -99.99  5.40
2019/12/06 12:54 EST  -99.99 -99.99    4  237    5  69.8 -99.9 1022.3 -9.9 -9.999  52.6 -99.99  5.40
2019/12/06 13:00 EST  -99.99 -99.99    5  233    7  69.6 -99.9 1022.1 -9.9 -9.999  52.4 -99.99  5.40
2019/12/06 13:06 EST  -99.99 -99.99    4  222    4  69.1 -99.9 1021.9 -9.9 -9.999  56.4 -99.99  5.40
2019/12/06 13:12 EST  -99.99 -99.99    6  259    8  70.0 -99.9 1021.8 -9.9 -9.999  54.1 -99.99  5.40
2019/12/06 13:18 EST  -99.99 -99.99    6  262    8  71.2 -99.9 1021.9 -9.9 -9.999  51.9 -99.99  5.40
2019/12/06 13:24 EST  -99.99 -99.99    4  268    7  71.4 -99.9 1021.9 -9.9 -9.999  51.6 -99.99  5.40
2019/12/06 13:30 EST  -99.99 -99.99    7  243    9  72.1 -99.9 1022.0 -9.9 -9.999  50.8 -99.99  5.40
2019/12/06 13:36 EST  -99.99 -99.99 -999 -999 -999 -99.9 -99.9 -999.9 -9.9 -9.999 -99.9 -99.99 -9.99
2019/12/06 13:42 EST  -99.99 -99.99 -999 -999 -999 -99.9 -99.9 -999.9 -9.9 -9.999 -99.9 -99.99 -9.99
2019/12/06 13:48 EST  -99.99 -99.99 -999 -999 -999 -99.9 -99.9 -999.9 -9.9 -9.999 -99.9 -99.99 -9.99
2019/12/06 13:54 EST  -99.99 -99.99 -999 -999 -999 -99.9 -99.9 -999.9 -9.9 -9.999 -99.9 -99.99 -9.99
2019/12/06 14:00 EST  -99.99 -99.99 -999 -999 -999 -99.9 -99.9 -999.9 -9.9 -9.999 -99.9 -99.99 -9.99
2019/12/06 14:06 EST  -99.99 -99.99 -999 -999 -999 -99.9 -99.9 -999.9 -9.9 -9.999 -99.9 -99.99 -9.99
2019/12/06 14:12 EST  -99.99 -99.99 -999 -999 -999 -99.9 -99.9 -999.9 -9.9 -9.999 -99.9 -99.99 -9.99
2019/12/06 14:18 EST  -99.99 -99.99 -999 -999 -999 -99.9 -99.9 -999.9 -9.9 -9.999 -99.9 -99.99 -9.99
2019/12/06 14:24 EST  -99.99 -99.99 -999 -999 -999 -99.9 -99.9 -999.9 -9.9 -9.999 -99.9 -99.99 -9.99
2019/12/06 14:30 EST  -99.99 -99.99 -999 -999 -999 -99.9 -99.9 -999.9 -9.9 -9.999 -99.9 -99.99 -9.99
2019/12/06 14:36 EST  -99.99 -99.99 -999 -999 -999 -99.9 -99.9 -999.9 -9.9 -9.999 -99.9 -99.99 -9.99
2019/12/06 14:42 EST  -99.99 -99.99 -999 -999 -999 -99.9 -99.9 -999.9 -9.9 -9.999 -99.9 -99.99 -9.99
2019/12/06 14:48 EST  -99.99 -99.99 -999 -999 -999 -99.9 -99.9 -999.9 -9.9 -9.999 -99.9 -99.99 -9.99
2019/12/06 14:54 EST  -99.99 -99.99 -999 -999 -999 -99.9 -99.9 -999.9 -9.9 -9.999 -99.9 -99.99 -9.99
2019/12/06 15:00 EST  -99.99 -99.99 -999 -999 -999 -99.9 -99.9 -999.9 -9.9 -9.999 -99.9 -99.99 -9.99
2019/12/06 15:06 EST  -99.99 -99.99 -999 -999 -999 -99.9 -99.9 -999.9 -9.9 -9.999 -99.9 -99.99 -9.99
2019/12/06 15:12 EST  -99.99 -99.99 -999 -999 -999 -99.9 -99.9 -999.9 -9.9 -9.999 -99.9 -99.99 -9.99
2019/12/06 15:18 EST  -99.99 -99.99 -999 -999 -999 -99.9 -99.9 -999.9 -9.9 -9.999 -99.9 -99.99 -9.99
2019/12/06 15:24 EST  -99.99 -99.99 -999 -999 -999 -99.9 -99.9 -999.9 -9.9 -9.999 -99.9 -99.99 -9.99
2019/12/06 15:30 EST  -99.99 -99.99 -999 -999 -999 -99.9 -99.9 -999.9 -9.9 -9.999 -99.9 -99.99 -9.99
2019/12/06 15:36 EST  -99.99 -99.99 -999 -999 -999 -99.9 -99.9 -999.9 -9.9 -9.999 -99.9 -99.99 -9.99
2019/12/06 15:42 EST  -99.99 -99.99 -999 -999 -999 -99.9 -99.9 -999.9 -9.9 -9.999 -99.9 -99.99 -9.99
2019/12/06 15:48 EST  -99.99 -99.99 -999 -999 -999 -99.9 -99.9 -999.9 -9.9 -9.999 -99.9 -99.99 -9.99
2019/12/06 15:54 EST  -99.99 -99.99 -999 -999 -999 -99.9 -99.9 -999.9 -9.9 -9.999 -99.9 -99.99 -9.99
2019/12/06 16:00 EST  -99.99 -99.99 -999 -999 -999 -99.9 -99.9 -999.9 -9.9 -9.999 -99.9 -99.99 -9.99
2019/12/06 16:06 EST  -99.99 -99.99 -999 -999 -999 -99.9 -99.9 -999.9 -9.9 -9.999 -99.9 -99.99 -9.99
2019/12/06 16:12 EST  -99.99 -99.99 -999 -999 -999 -99.9 -99.9 -999.9 -9.9 -9.999 -99.9 -99.99 -9.99
2019/12/06 16:18 EST  -99.99 -99.99 -999 -999 -999 -99.9 -99.9 -999.9 -9.9 -9.999 -99.9 -99.99 -9.99
2019/12/06 16:24 EST  -99.99 -99.99 -999 -999 -999 -99.9 -99.9 -999.9 -9.9 -9.999 -99.9 -99.99 -9.99
2019/12/06 16:30 EST  -99.99 -99.99 -999 -999 -999 -99.9 -99.9 -999.9 -9.9 -9.999 -99.9 -99.99 -9.99
2019/12/06 16:36 EST  -99.99 -99.99 -999 -999 -999 -99.9 -99.9 -999.9 -9.9 -9.999 -99.9 -99.99 -9.99
2019/12/06 16:42 EST  -99.99 -99.99 -999 -999 -999 -99.9 -99.9 -999.9 -9.9 -9.999 -99.9 -99.99 -9.99
2019/12/06 16:48 EST  -99.99 -99.99 -999 -999 -999 -99.9 -99.9 -999.9 -9.9 -9.999 -99.9 -99.99 -9.99
2019/12/06 16:54 EST  -99.99 -99.99 -999 -999 -999 -99.9 -99.9 -999.9 -9.9 -9.999 -99.9 -99.99 -9.99
2019/12/06 17:00 EST  -99.99 -99.99 -999 -999 -999 -99.9 -99.9 -999.9 -9.9 -9.999 -99.9 -99.99 -9.99
2019/12/06 17:06 EST  -99.99 -99.99 -999 -999 -999 -99.9 -99.9 -999.9 -9.9 -9.999 -99.9 -99.99 -9.99
2019/12/06 17:12 EST  -99.99 -99.99 -999 -999 -999 -99.9 -99.9 -999.9 -9.9 -9.999 -99.9 -99.99 -9.99
2019/12/06 17:18 EST  -99.99 -99.99 -999 -999 -999 -99.9 -99.9 -999.9 -9.9 -9.999 -99.9 -99.99 -9.99
2019/12/06 17:24 EST  -99.99 -99.99 -999 -999 -999 -99.9 -99.9 -999.9 -9.9 -9.999 -99.9 -99.99 -9.99
2019/12/06 17:30 EST  -99.99 -99.99 -999 -999 -999 -99.9 -99.9 -999.9 -9.9 -9.999 -99.9 -99.99 -9.99
2019/12/06 17:36 EST  -99.99 -99.99 -999 -999 -999 -99.9 -99.9 -999.9 -9.9 -9.999 -99.9 -99.99 -9.99
2019/12/06 17:42 EST  -99.99 -99.99 -999 -999 -999 -99.9 -99.9 -999.9 -9.9 -9.999 -99.9 -99.99 -9.99
2019/12/06 17:48 EST  -99.99 -99.99 -999 -999 -999 -99.9 -99.9 -999.9 -9.9 -9.999 -99.9 -99.99 -9.99
2019/12/06 17:54 EST  -99.99 -99.99 -999 -999 -999 -99.9 -99.9 -999.9 -9.9 -9.999 -99.9 -99.99 -9.99
2019/12/06 18:00 EST  -99.99 -99.99 -999 -999 -999 -99.9 -99.9 -999.9 -9.9 -9.999 -99.9 -99.99 -9.99
2019/12/06 18:06 EST  -99.99 -99.99 -999 -999 -999 -99.9 -99.9 -999.9 -9.9 -9.999 -99.9 -99.99 -9.99
2019/12/06 18:12 EST  -99.99 -99.99 -999 -999 -999 -99.9 -99.9 -999.9 -9.9 -9.999 -99.9 -99.99 -9.99
2019/12/06 18:18 EST  -99.99 -99.99 -999 -999 -999 -99.9 -99.9 -999.9 -9.9 -9.999 -99.9 -99.99 -9.99
2019/12/06 18:24 EST  -99.99 -99.99 -999 -999 -999 -99.9 -99.9 -999.9 -9.9 -9.999 -99.9 -99.99 -9.99
2019/12/06 18:30 EST  -99.99 -99.99 -999 -999 -999 -99.9 -99.9 -999.9 -9.9 -9.999 -99.9 -99.99 -9.99
2019/12/06 18:36 EST  -99.99 -99.99 -999 -999 -999 -99.9 -99.9 -999.9 -9.9 -9.999 -99.9 -99.99 -9.99
2019/12/06 18:42 EST  -99.99 -99.99 -999 -999 -999 -99.9 -99.9 -999.9 -9.9 -9.999 -99.9 -99.99 -9.99
2019/12/06 18:48 EST  -99.99 -99.99 -999 -999 -999 -99.9 -99.9 -999.9 -9.9 -9.999 -99.9 -99.99 -9.99
2019/12/06 18:54 EST  -99.99 -99.99 -999 -999 -999 -99.9 -99.9 -999.9 -9.9 -9.999 -99.9 -99.99 -9.99
2019/12/06 19:00 EST  -99.99 -99.99 -999 -999 -999 -99.9 -99.9 -999.9 -9.9 -9.999 -99.9 -99.99 -9.99
2019/12/06 19:06 EST  -99.99 -99.99 -999 -999 -999 -99.9 -99.9 -999.9 -9.9 -9.999 -99.9 -99.99 -9.99
2019/12/06 19:12 EST  -99.99 -99.99 -999 -999 -999 -99.9 -99.9 -999.9 -9.9 -9.999 -99.9 -99.99 -9.99
2019/12/06 19:18 EST  -99.99 -99.99 -999 -999 -999 -99.9 -99.9 -999.9 -9.9 -9.999 -99.9 -99.99 -9.99
2019/12/06 19:24 EST  -99.99 -99.99 -999 -999 -999 -99.9 -99.9 -999.9 -9.9 -9.999 -99.9 -99.99 -9.99
2019/12/06 19:30 EST  -99.99 -99.99 -999 -999 -999 -99.9 -99.9 -999.9 -9.9 -9.999 -99.9 -99.99 -9.99
2019/12/06 19:36 EST  -99.99 -99.99 -999 -999 -999 -99.9 -99.9 -999.9 -9.9 -9.999 -99.9 -99.99 -9.99
2019/12/06 19:42 EST  -99.99 -99.99 -999 -999 -999 -99.9 -99.9 -999.9 -9.9 -9.999 -99.9 -99.99 -9.99